Flag for Germany Weather past 2 weeks in Biberach an der Riss, Baden-Württemberg, Germany

Now
30 °F

Passing clouds.


Feels Like: 23 °F
Forecast: 24 / 33 °F
Wind: 7 mph from Southwest

Location: Laupheim Airport

Current Time: Feb 1, 2015 at 2:34:43 AM

Latest Report: Feb 1, 2015 at 1:20 AM


Visibility: N/A

Pressure: 29.15 "Hg

Humidity: 86%

Dew point: 27 °F

Location of Biberach an der RissLocation

Historic Weather in Biberach an der Riss — Graph

°F

Biberach an der Riss temperature yesterday

Maximum temperature yesterday: 34 °F (at 11:20 AM)
Minimum temperature yesterday: 28 °F (at 8:20 AM)
Average temperature yesterday: 32 °F

Past Weeks' High & Low Weather Summary

 TemperatureHumidityPressure
High39 °F (Jan 17, 1:20 AM)100% (Jan 17, 4:20 AM)30.36 "Hg (Jan 17, 4:20 AM)
Low28 °F (Jan 18, 9:20 AM)69% (Jan 30, 10:20 AM)28.77 "Hg (Jan 30, 1:20 AM)
Average32 °F91%29.81 "Hg
* Reported Jan 17 1:20 AM — Feb 1 1:20 AM, Biberach an der Riss, Weather by CustomWeather, © 2014

Note: Actual official high and low records may vary slightly from our data, if they occured in-between our weather recording intervals... More about our weather records

Advertising

Biberach an der Riss weather history for previous 24 hours

 ConditionsComfort  
Time TempWeatherWind HumidityBarometerVisibility
1:20 AM
Feb 1
30 °FPassing clouds.7 mph86%29.15 "HgN/A
12:20 AM32 °FPassing clouds.9 mph87%29.15 "HgN/A
11:20 PM
Jan 31
30 °FPassing clouds.5 mph93%29.15 "HgN/A
10:20 PM32 °FPassing clouds.9 mph87%29.15 "HgN/A
9:20 PM32 °FPassing clouds.9 mph87%29.15 "HgN/A
8:20 PM34 °FPassing clouds.13 mph81%29.12 "HgN/A
7:20 PM34 °FPassing clouds.10 mph81%29.12 "HgN/A
6:20 PM34 °FLight snow. Partly cloudy.5 mph75%29.09 "HgN/A
5:20 PM32 °FPassing clouds.3 mph80%29.09 "HgN/A
4:20 PM34 °FPartly sunny.3 mph70%29.06 "HgN/A
3:20 PM34 °FBroken clouds.6 mph70%29.06 "HgN/A
2:20 PM34 °FBroken clouds.9 mph70%29.06 "HgN/A
1:20 PM34 °FBroken clouds.9 mph75%29.06 "HgN/A
12:20 PM34 °FPartly sunny.10 mph75%29.06 "HgN/A
11:20 AM34 °FScattered clouds.10 mph75%29.06 "HgN/A
10:20 AM32 °FScattered clouds.12 mph80%29.03 "HgN/A
9:20 AM30 °FBroken clouds.12 mph86%29.03 "HgN/A
8:20 AM28 °FPartly sunny.8 mph86%29.03 "HgN/A
7:20 AM30 °FPartly cloudy.9 mph86%29.00 "HgN/A
6:20 AM30 °FPassing clouds.10 mph93%29.00 "HgN/A
5:20 AM32 °FLight snow. Passing clouds.12 mph87%28.97 "HgN/A
4:20 AM30 °FLight snow. Passing clouds.8 mph93%28.97 "HgN/A
3:20 AM30 °FLight snow. Partly cloudy.8 mph93%28.97 "HgN/A
2:20 AM30 °FPartly cloudy.10 mph93%28.94 "HgN/A
Weather by CustomWeather, © 2014

See weather overviewHow to use our weather pages